2023/10/18 00:00:00,55.3,11.3
2023/10/18 00:10:00,55.3,11.1
2023/10/18 00:20:00,55.2,11.2
2023/10/18 00:30:00,55.2,11.0
2023/10/18 00:40:00,55.2,10.8
2023/10/18 00:50:00,55.2,10.7
2023/10/18 01:00:00,55.2,10.6
2023/10/18 01:10:00,55.1,10.4
2023/10/18 01:20:00,55.1,10.1
2023/10/18 01:30:00,55.1,10.2
2023/10/18 01:40:00,55.0,10.5
2023/10/18 01:50:00,55.0,10.1
2023/10/18 02:00:00,55.1, 9.9
2023/10/18 02:10:00,55.0, 9.9
2023/10/18 02:20:00,55.0, 9.9
2023/10/18 02:30:00,55.0,10.2
2023/10/18 02:40:00,55.0, 9.6
2023/10/18 02:50:00,55.0, 9.6
2023/10/18 03:00:00,54.9, 9.6
2023/10/18 03:10:00,54.9, 9.8
2023/10/18 03:20:00,54.9, 9.9
2023/10/18 03:30:00,54.9, 9.8
2023/10/18 03:40:00,55.0, 9.7
2023/10/18 03:50:00,55.0, 9.9
2023/10/18 04:00:00,54.8, 9.8
2023/10/18 04:10:00,54.8, 9.6
2023/10/18 04:20:00,54.8, 9.5
2023/10/18 04:30:00,54.8, 9.6
2023/10/18 04:40:00,54.8, 9.6
2023/10/18 04:50:00,54.9, 9.6
2023/10/18 05:00:00,54.8, 9.6
2023/10/18 05:10:00,54.8, 9.2
2023/10/18 05:20:00,54.8, 9.4
2023/10/18 05:30:00,54.7, 9.4
2023/10/18 05:40:00,54.7, 9.1
2023/10/18 05:50:00,54.7, 9.1
2023/10/18 06:00:00,54.8, 8.9
2023/10/18 06:10:00,54.7, 9.0
2023/10/18 06:20:00,54.7, 9.1
2023/10/18 06:30:00,54.7, 9.3
2023/10/18 06:40:00,54.7, 9.1
2023/10/18 06:50:00,54.7, 9.1
2023/10/18 07:00:00,54.7, 9.5
2023/10/18 07:10:00,54.7, 9.6
2023/10/18 07:20:00,54.7, 9.7
2023/10/18 07:30:00,54.6, 9.9
2023/10/18 07:40:00,54.7,10.2
2023/10/18 07:50:00,54.6,10.6
2023/10/18 08:00:00,54.6,10.8
2023/10/18 08:10:00,54.6,11.3
2023/10/18 08:20:00,54.6,11.9
2023/10/18 08:30:00,54.7,12.3
2023/10/18 08:40:00,54.6,12.8
2023/10/18 08:50:00,54.6,13.2
2023/10/18 09:00:00,54.5,13.7
2023/10/18 09:10:00,54.4,14.4
2023/10/18 09:20:00,54.4,15.3
2023/10/18 09:30:00,54.3,16.3
2023/10/18 09:40:00,54.3,16.9
2023/10/18 09:50:00,54.3,17.3
2023/10/18 10:00:00,54.3,17.0
2023/10/18 10:10:00,54.5,17.9
2023/10/18 10:20:00,---,17.7
2023/10/18 10:30:00,50.4,17.0
2023/10/18 10:40:00,54.5,16.8
2023/10/18 10:50:00,54.7,22.6
2023/10/18 11:00:00,54.6,24.0
2023/10/18 11:10:00,54.2,23.9
2023/10/18 11:20:00,54.0,19.7
2023/10/18 11:30:00,---,19.6
2023/10/18 11:40:00,54.0,20.1
2023/10/18 11:50:00,54.0,20.2
2023/10/18 12:00:00,54.1,20.8
2023/10/18 12:10:00,53.5,19.4
2023/10/18 12:20:00,---,21.6
2023/10/18 12:30:00,39.2,21.0
2023/10/18 12:40:00,43.0,22.3
2023/10/18 12:50:00,51.0,23.0
2023/10/18 13:00:00,39.1,21.7
2023/10/18 13:10:00,52.1,22.2
2023/10/18 13:20:00,53.3,21.2
2023/10/18 13:30:00,53.5,22.9
2023/10/18 13:40:00,52.7,21.7
2023/10/18 13:50:00,---,22.5
2023/10/18 14:00:00,52.9,22.7
2023/10/18 14:10:00,50.1,21.8
2023/10/18 14:20:00,52.7,20.2
2023/10/18 14:30:00,53.4,19.1
2023/10/18 14:40:00,53.7,18.6
2023/10/18 14:50:00,53.9,19.7
2023/10/18 15:00:00,53.7,18.5
2023/10/18 15:10:00,53.8,18.8
2023/10/18 15:20:00,53.8,18.6
2023/10/18 15:30:00,54.0,18.7
2023/10/18 15:40:00,54.0,19.1
2023/10/18 15:50:00,53.9,18.5
2023/10/18 16:00:00,54.1,18.2
2023/10/18 16:10:00,54.2,17.8
2023/10/18 16:20:00,54.4,17.7
2023/10/18 16:30:00,54.5,16.9
2023/10/18 16:40:00,54.6,16.4
2023/10/18 16:50:00,54.7,16.0
2023/10/18 17:00:00,54.7,15.6
2023/10/18 17:10:00,54.7,15.6
2023/10/18 17:20:00,54.8,15.1
2023/10/18 17:30:00,54.8,14.8
2023/10/18 17:40:00,54.8,14.5
2023/10/18 17:50:00,54.8,14.4
2023/10/18 18:00:00,54.8,14.2
2023/10/18 18:10:00,54.8,14.4
2023/10/18 18:20:00,55.0,14.0
2023/10/18 18:30:00,54.9,13.7
2023/10/18 18:40:00,54.9,13.4
2023/10/18 18:50:00,54.9,13.2
2023/10/18 19:00:00,54.9,13.0
2023/10/18 19:10:00,54.9,12.8
2023/10/18 19:20:00,54.9,12.7
2023/10/18 19:30:00,54.9,12.4
2023/10/18 19:40:00,55.0,12.0
2023/10/18 19:50:00,55.0,12.2
2023/10/18 20:00:00,55.0,11.7
2023/10/18 20:10:00,55.0,11.7
2023/10/18 20:20:00,55.0,11.5
2023/10/18 20:30:00,55.0,11.3
2023/10/18 20:40:00,55.0,11.2
2023/10/18 20:50:00,55.0,10.9
2023/10/18 21:00:00,55.0,10.9
2023/10/18 21:10:00,55.0,10.8
2023/10/18 21:20:00,54.9,10.7
2023/10/18 21:30:00,55.0,10.6
2023/10/18 21:40:00,54.9,10.6
2023/10/18 21:50:00,54.9,10.4
2023/10/18 22:00:00,54.9,10.5
2023/10/18 22:10:00,54.9,10.0
2023/10/18 22:20:00,54.8,10.0
2023/10/18 22:30:00,54.8,10.0
2023/10/18 22:40:00,54.8, 9.9
2023/10/18 22:50:00,54.8, 9.6
2023/10/18 23:00:00,54.7, 9.7
2023/10/18 23:10:00,54.7, 9.6
2023/10/18 23:20:00,54.8, 9.5
2023/10/18 23:30:00,54.7, 9.4
2023/10/18 23:40:00,54.7, 9.2
2023/10/18 23:50:00,54.7, 9.3
